DELTA 1 DEB, 40759

Orbit data source: Space-Track

DELTA 1 DEB, 40759 is space debris in SSO originally from a launch on Thu, 29 Jul 1976 UTC launched from the Air Force Western Test Range (AFWTR). Debris objects in space refer to the collection of defunct objects orbiting the Earth. Examples of debris include non-operational satellites, rocket bodies, and fragments generated from explosions, collisions, or faulty payload assembly.

Loading next visibility...
Identifier
40759, 1976-077GC
Orbit
SSO
Last TLE update
4 days ago
Origin
Manufacturer
Unknown
Mission
Spacecraft
Bus & Motor
Unknown
Mass
Unknown
Launch date (UTC)
1976-07-29 (49 years ago)
Launch vehicle
Unknown
Launch site
Air Force Western Test Range (AFWTR)
Object type
Payload
Rocket body
Debris
Shape & HBR
Unknown
Radar Cross Section
Small (<0.1 m²)

Expand to show TLE details & history

TLE from 4 days ago
0 DELTA 1 DEB
1 40759U 76077GC  25179.42725345  .00000059  00000-0  48840-3 0  9999
2 40759 102.1246 263.5742 0291728 287.9341  69.0136 12.66450829940220
Epoch: 2025-06-28T10:15Z
TLE epoch observation values (Epoch: 2025-06-28T10:15:14.698Z)
Latitude
-0.00002°
Longitude
-167.00296°
Altitude
1,323.63 km
Speed
7.23 km/s
True Right ascension
17h 34m 17s
True Declination
0° 00' 00"
Sunlit
Object was in full shadow at epoch
Visualization orbit readout
Latitude
44.95233°
Longitude
29.32345°
Altitude
1,590.479 km
Speed
6.992 km/s
Apparent Right ascension
06h 12m 19s
Apparent Declination
8° 21' 24"
Sunlit
Object is in daylight
Visualization observer readout
Local Sidereal Time
17:40:50
Azimuth
349.632° N
Elevation
-41.181°
Doppler factor
1
Orbital elements
Apogee altitude
1,620.71 km
Perigee altitude
1,167.242 km
Semi-major axis
7,772.113 km
Eccentricity
0.02917
Inclination
102.1246°
RAAN
263.5742°
Arg. of periapsis
287.9341°
True anomaly
Unknown
Mean anomaly
69.0136°
Eccentric anomaly
Unknown
Mean motion
3.16763 °/min
Orbital period
113.65 mins
BSTAR
0.0004884
Loading maneuver chart data...
Loading SW <> Apogee altitude chart data...
Loading historical data...
Loading historical data...
Loading historical data...
Loading historical data...
Loading historical data...
Loading historical data...
Loading historical data...

DELTA 1 DEB Visibility forecast

Observer location: undefined°, undefined°

Span
Click to sort rows by Start time (UTC) header in descending order
Start Az.
Max El. time (UTC)
Max El. Az.
Max El.
End time (UTC)
End Az.
10 mins2025-07-02 07:16:11.059Z232.713° WSW2025-07-02 07:21:11.059Z271.584° WNW17.224°2025-07-02 07:26:11.059Z308.022° NW
13 mins2025-07-02 17:18:11.059Z43.272° NE2025-07-02 17:24:11.059Z91.277° ESE26.087°2025-07-02 17:31:11.059Z149.93° SSE
15 mins2025-07-02 19:09:11.059Z10.79° NNE2025-07-02 19:16:11.059Z307.092° NW42.409°2025-07-02 19:24:11.059Z215.4° SW
9 mins2025-07-02 21:02:11.059Z343.787° N2025-07-02 21:06:11.059Z315.399° NNW16.485°2025-07-02 21:11:11.059Z280.022° WNW
14 mins2025-07-03 04:09:11.059Z115.601° SE2025-07-03 04:15:11.059Z60.605° ENE31.128°2025-07-03 04:23:11.059Z356.207° N
|